Theta_e
340 340 340 340 340 340 340 339 339 339 339 338 338 338 338 338 337 338 338 338 337 337 335 335 335 336 336 335 333 332 332 332 331 331 330 330 330 330 329 328 326 324
340 340 340 340 339 339 339 339 339 339 338 338 338 338 338 337 337 338 337 337 336 335 335 335 335 335 336 334 332 331 331 330 330 329 328 328 327 327 327 326 325 324
340 340 340 339 339 339 339 339 339 339 338 338 338 337 337 337 337 337 335 335 335 334 335 335 334 334 334 332 330 329 329 328 328 326 325 326 325 324 324 324 324 323
339 340 339 339 339 339 339 339 338 338 338 338 337 337 337 337 336 334 333 333 334 334 334 333 331 331 330 329 328 328 327 326 325 324 324 324 323 322 321 321 321 321
339 339 339 339 339 339 339 338 338 338 338 338 337 337 336 336 335 332 331 332 333 333 332 330 328 327 327 328 327 325 324 323 322 322 321 321 319 319 318 318 319 318
339 339 339 339 339 339 338 338 338 338 338 337 337 337 336 336 335 332 331 332 332 332 329 327 326 325 325 326 325 323 322 321 320 318 318 317 316 316 316 316 316 315
338 338 338 338 338 338 338 338 338 338 337 337 337 336 336 335 334 332 330 330 331 329 327 326 326 325 324 323 322 321 320 319 318 316 315 315 314 314 314 313 313 313
338 338 338 338 338 338 338 337 338 338 337 337 336 335 335 334 333 332 329 328 328 327 326 325 325 323 323 322 321 320 319 318 316 314 314 314 312 312 312 311 311 310
338 338 338 338 338 337 337 337 337 337 337 337 335 334 333 333 333 332 329 327 326 325 324 324 323 322 322 321 320 319 318 317 315 313 313 313 311 311 311 310 309 309
338 338 337 337 337 337 337 337 337 337 336 336 335 333 333 332 331 330 329 327 326 325 324 323 322 321 320 320 319 317 316 316 314 313 312 312 311 310 310 309 309 308
337 337 337 337 337 337 337 337 337 336 336 336 334 332 332 331 329 328 327 327 326 325 324 323 321 320 320 319 317 316 315 314 313 312 311 311 310 310 310 309 309 308
337 337 337 336 336 336 337 336 336 336 336 335 334 332 331 331 329 327 327 327 326 324 323 322 320 320 320 318 316 315 314 312 312 311 310 310 310 310 309 309 309 308
337 337 336 336 336 336 336 336 336 336 336 334 333 332 331 330 328 327 326 326 326 324 324 322 320 319 319 317 316 315 313 312 311 310 309 309 309 309 309 309 308 308
337 337 336 336 336 336 336 336 336 336 335 333 332 331 331 330 329 327 326 326 326 325 323 321 320 319 318 317 316 315 313 312 310 309 309 309 309 309 309 308 308 307
337 337 336 335 335 335 335 335 335 334 334 333 331 331 331 330 329 328 327 326 325 323 322 321 320 319 317 316 316 315 313 311 310 309 309 309 309 309 309 308 307 307
336 337 335 334 335 335 335 335 334 333 333 332 331 331 331 330 329 328 327 327 325 323 321 320 319 318 318 316 315 314 313 311 310 310 310 309 309 309 309 308 307 306
336 336 335 334 334 334 334 334 333 333 333 331 330 330 330 330 329 327 326 326 325 323 321 320 319 318 317 316 315 314 313 312 310 310 309 309 309 309 309 308 308 306
335 335 334 334 334 334 334 333 333 333 332 331 330 330 329 329 328 327 326 325 324 323 321 320 319 318 317 316 315 313 312 311 310 309 309 309 309 309 309 309 308 307
335 335 333 332 333 334 333 332 332 332 331 330 330 330 329 328 327 326 325 324 324 323 321 320 319 318 316 315 314 312 311 310 310 309 309 309 308 308 308 308 309 308
335 334 333 332 333 333 331 331 331 331 330 330 330 329 328 327 326 325 325 324 324 322 321 320 319 317 316 315 313 312 311 310 309 309 309 309 308 308 308 308 308 308
335 334 332 332 332 331 330 331 332 331 330 329 329 329 327 326 326 326 325 325 323 322 321 320 318 317 316 314 313 312 311 310 309 309 309 308 308 308 307 307 307 307
334 333 332 332 331 330 329 330 331 331 329 329 328 327 327 326 326 326 326 325 322 321 320 319 318 317 316 314 313 312 311 310 309 309 308 308 308 308 307 307 307 307
334 333 332 332 331 330 329 330 330 329 329 328 326 324 323 324 325 326 326 325 323 321 320 319 317 316 315 314 313 312 310 309 309 308 308 308 308 308 307 307 307 307
333 332 332 331 330 330 329 330 329 328 327 327 325 324 324 324 325 326 326 324 322 321 319 318 317 316 315 313 312 311 310 309 309 308 308 307 307 307 306 306 306 306
333 333 332 331 330 330 330 329 327 326 326 326 326 326 325 323 324 326 325 322 321 319 318 317 316 316 315 313 312 311 310 309 308 308 307 306 306 305 304 303 303 304
333 332 332 331 330 329 328 328 327 326 327 326 326 326 325 323 322 324 323 320 318 317 316 316 316 315 314 313 311 310 309 309 308 308 307 306 304 303 301 300 300 301
Wind_Speed
35 34 33 30 28 26 25 23 21 21 21 21 21 21 21 22 22 22 22 21 20 19 17 17 16 15 16 18 19 19 19 18 16 15 14 14 15 17 19 18 18 17
34 33 32 30 28 26 24 22 21 20 20 20 20 21 21 21 22 23 23 21 19 17 17 17 16 17 19 21 21 20 19 17 15 14 13 13 13 15 17 17 17 17
34 33 31 30 28 26 22 21 20 19 18 18 19 20 21 22 23 22 21 19 18 18 18 17 17 20 21 21 20 18 16 15 14 13 12 11 12 14 16 16 16 16
33 32 31 29 27 24 22 21 19 18 18 18 18 19 21 22 21 17 15 16 17 19 17 16 19 21 21 19 17 14 12 11 11 11 11 12 14 15 16 15 15 16
32 31 30 28 26 23 22 21 19 18 18 18 18 19 20 20 17 12 12 14 15 17 17 17 19 19 17 15 12 9 9 9 9 10 12 14 16 16 15 14 15 15
31 30 29 27 25 23 22 21 19 17 18 19 19 19 19 17 14 11 11 13 15 17 18 18 17 15 13 11 9 9 10 10 10 11 13 15 15 14 13 13 15 15
30 29 28 26 24 23 22 21 18 17 18 19 19 18 17 16 13 11 12 14 15 16 18 18 16 14 12 11 10 12 12 11 12 14 15 15 14 14 14 14 15 15
29 28 27 26 24 24 23 21 18 17 19 19 18 17 16 14 13 11 12 14 15 16 17 17 15 13 12 11 10 12 13 12 13 16 16 15 15 15 16 16 15 15
29 28 26 26 25 24 23 20 18 18 19 19 18 16 14 13 13 12 13 14 15 17 17 16 15 13 11 10 10 11 12 13 14 15 14 15 16 16 17 16 15 14
29 27 26 26 26 24 23 20 19 19 19 19 17 15 14 14 13 13 14 15 15 16 16 16 15 13 12 11 11 11 11 13 14 14 13 14 15 16 16 16 15 14
29 27 26 27 25 24 23 21 20 20 19 18 17 16 15 14 14 15 16 17 16 15 15 15 14 13 13 13 13 12 12 14 14 13 12 14 15 15 16 15 14 14
29 27 26 27 26 24 23 21 20 20 20 19 17 17 17 15 15 17 17 17 16 15 14 13 13 13 13 13 14 13 13 16 16 13 13 15 15 15 16 15 14 13
29 27 27 27 26 25 24 22 21 21 20 18 18 18 18 17 17 18 18 16 15 13 13 13 13 14 13 13 13 13 15 17 17 15 15 17 16 16 16 15 14 13
29 27 28 28 27 26 26 24 23 21 18 17 18 19 19 18 18 19 18 16 14 13 13 13 13 13 13 13 14 14 15 17 16 16 18 18 17 17 17 15 13 14
30 28 28 28 28 27 26 25 24 20 17 18 20 20 19 19 19 19 18 17 15 14 14 14 14 13 12 13 14 14 15 16 15 17 18 18 18 18 17 15 14 14
31 29 29 28 28 27 26 26 23 19 17 20 21 21 20 20 20 20 19 17 16 16 16 16 14 12 12 12 13 13 15 16 16 17 18 18 19 19 18 17 15 14
31 30 30 29 29 28 27 26 22 19 20 22 22 21 21 21 20 20 20 18 16 16 17 17 15 12 11 12 12 11 13 16 18 18 19 18 19 19 19 18 17 16
32 31 30 30 29 28 27 25 22 21 23 24 23 23 23 22 21 21 20 19 17 16 17 16 14 11 11 11 12 11 13 16 18 18 18 18 18 18 18 18 18 18
32 31 31 31 30 29 28 26 24 25 25 25 25 25 24 24 23 22 22 20 18 17 17 16 14 12 11 12 12 13 14 16 17 17 17 17 17 17 17 18 18 19
31 31 31 30 30 30 29 27 26 26 26 26 26 26 26 26 25 24 22 20 19 19 18 17 15 13 12 12 13 14 14 15 16 15 16 15 16 16 17 17 18 19
31 31 31 30 30 30 29 28 28 27 26 27 27 27 28 27 26 25 22 20 21 20 19 18 17 15 13 14 14 14 14 16 16 15 15 15 15 16 16 17 17 18
31 31 30 30 30 29 29 29 29 28 28 28 28 28 29 28 27 25 22 22 22 22 21 20 18 16 15 15 15 15 15 16 17 16 15 16 16 16 17 17 17 18
31 31 30 30 30 30 29 29 29 29 29 29 28 28 28 29 28 24 22 22 23 23 23 22 20 18 17 17 16 16 16 18 18 17 17 17 17 17 17 18 18 19
32 31 31 31 31 30 30 29 29 29 30 30 30 29 28 29 27 25 23 23 24 24 24 23 22 20 18 18 17 17 17 18 19 18 18 18 18 17 17 17 18 19
32 32 32 32 31 31 31 30 29 30 30 29 29 29 28 29 27 25 24 25 25 25 25 23 22 20 20 19 18 18 18 18 19 19 19 18 17 16 16 16 17 19
31 31 32 32 31 31 31 30 30 30 29 28 27 26 26 27 27 26 26 26 25 24 24 23 22 21 21 20 19 19 19 19 19 19 18 17 17 16 15 14 15 17
Wind_Direction
211 212 213 211 209 208 208 209 212 217 223 227 230 233 233 235 234 232 234 237 238 241 240 235 232 228 220 214 211 210 213 215 213 212 211 209 210 216 217 216 214 211
210 211 212 210 208 207 208 213 217 222 228 231 233 234 234 236 236 234 235 234 231 234 236 232 228 224 217 210 209 210 210 209 207 207 207 207 210 214 215 214 210 210
209 209 210 209 207 204 207 213 219 225 230 231 231 233 235 237 238 235 227 221 226 232 234 231 221 214 211 206 206 207 206 205 204 205 206 207 212 213 210 206 202 205
207 209 209 209 207 205 208 212 216 222 226 229 232 234 236 238 239 230 207 201 221 230 226 219 210 203 201 198 199 203 203 204 204 204 204 200 201 205 201 196 195 198
205 207 208 207 205 204 207 211 214 219 224 227 232 234 236 238 236 223 195 192 211 218 210 205 198 191 190 190 193 204 205 203 204 204 201 192 189 194 192 188 191 195
203 205 205 204 203 203 208 211 213 218 224 227 228 230 232 232 230 220 199 193 205 208 198 194 190 184 186 188 192 204 201 194 194 193 192 186 181 184 186 189 193 194
200 202 201 201 202 205 208 209 211 218 224 224 223 223 224 226 227 219 199 190 196 198 190 189 191 187 186 189 194 194 184 177 181 184 186 184 179 180 182 188 193 190
198 198 198 199 200 203 205 205 208 215 218 217 216 216 219 225 226 215 193 181 180 182 184 187 189 188 189 192 196 190 176 173 181 184 186 183 178 179 181 184 189 185
195 194 194 196 197 199 200 201 206 210 211 211 211 210 211 217 219 209 193 182 174 172 176 182 185 189 193 192 192 189 179 175 181 185 187 183 180 181 181 181 182 178
190 191 191 193 195 196 197 198 201 203 205 207 206 203 202 203 202 197 192 189 181 174 176 182 185 186 188 188 190 190 183 178 181 189 193 189 186 184 180 180 179 174
185 187 190 192 192 193 195 195 196 199 202 202 200 197 196 194 188 184 188 191 188 184 184 186 187 186 186 187 187 185 183 178 178 188 199 195 190 186 180 179 179 173
182 185 189 191 191 192 193 191 193 196 196 195 196 194 190 189 185 183 186 191 191 190 191 191 190 189 187 187 187 183 180 179 176 180 195 197 191 186 182 179 180 176
180 185 189 189 189 190 189 189 191 193 193 193 194 192 188 187 186 184 186 192 195 195 197 198 193 189 188 189 190 185 181 182 181 180 188 193 190 186 183 180 179 178
179 184 188 187 188 188 186 186 187 188 190 193 192 190 189 189 187 187 188 193 198 198 198 199 193 190 192 190 189 187 186 188 188 187 187 186 185 184 181 177 177 179
176 181 186 186 186 185 183 184 183 182 189 194 191 188 189 190 191 191 191 193 195 195 196 196 193 194 197 195 193 192 190 190 189 189 188 184 182 181 179 175 174 176
175 179 183 183 183 182 182 182 180 181 190 191 187 186 188 190 191 192 194 195 191 192 194 193 191 197 202 201 200 197 193 191 190 190 189 187 184 180 178 176 172 173
172 176 180 181 181 181 181 180 179 184 190 187 184 185 187 191 193 193 195 196 194 194 195 192 192 198 202 200 200 202 198 193 191 190 189 188 187 182 179 177 174 175
171 174 177 179 180 180 179 180 181 185 186 184 185 186 187 191 193 194 195 197 198 199 199 197 197 199 199 198 199 202 200 194 191 191 190 188 189 187 183 181 179 179
171 174 176 177 179 179 180 180 181 183 184 185 186 187 189 191 192 194 196 197 199 203 203 202 200 197 198 201 201 200 200 199 197 196 195 194 194 194 191 189 186 184
172 175 177 177 178 179 179 179 180 182 184 185 186 187 189 189 190 193 195 198 203 204 205 205 201 197 198 201 202 202 202 203 203 201 200 200 200 201 201 197 195 192
173 176 177 177 177 178 178 178 182 184 184 185 188 190 190 189 190 193 195 200 205 204 205 207 203 198 200 202 203 205 205 205 205 203 202 202 203 204 205 204 203 201
174 176 176 176 177 178 177 177 180 184 185 187 188 189 190 191 192 194 196 201 204 204 206 208 203 199 201 203 204 207 206 205 205 203 202 202 203 205 207 208 208 208
178 178 176 177 178 178 177 178 181 184 185 187 186 184 186 189 191 192 197 204 206 206 207 207 202 198 201 204 205 207 206 205 203 202 200 202 205 207 210 212 213 213
181 179 178 178 179 178 178 180 182 184 183 185 186 184 186 191 192 192 198 206 208 207 209 208 201 196 199 204 205 207 208 205 203 202 200 201 205 209 213 216 216 215
181 181 181 180 179 180 181 181 181 181 182 183 186 187 190 192 193 195 200 205 207 208 209 208 201 196 198 203 205 206 207 205 204 204 202 201 204 209 213 215 217 215
182 183 182 180 180 180 179 179 180 179 179 181 185 189 193 193 194 198 201 201 203 206 208 208 203 198 198 201 204 207 207 205 205 206 206 204 205 207 205 206 212 213